Location: Unspecified
(42.2936°N, 3.1641°W)
Time: 15:53:04
(UTC+02:00)

X-37B - Pass Details

Date: 12 March 2021
Orbit: 380 x 394 km, 45.0° (Epoch: 07 April)

Event Time Altitude Azimuth Distance (km) Brightness Sun altitude
Rises 20:50:21 0° 243° (WSW) 2,264 5.3 -18.2°
Reaches altitude 10° 20:52:25 10° 241° (WSW) 1,414 4.1 -18.6°
Enters shadow 20:55:24 66° 182° (S) 429 0.6 -19.1°
